Погода в Калтуке

Россия / Иркутская область     55°40′39″N   101°44′09″E
темп.,
°C
ветер,
м/с
пор.,
м/с
влажн.,
%
обл.,
%
осадки,
мм/ч
давл.,
гПа
погр.,
м
27 февраля, сб
сб2723:00−19ю348199 0.0 102952
02:00−18зсз6109399 0.6 1030887
05:00−22з51086100 0.0 1033282
08:00−25з4890100 0.0 1036202
11:00−23з5880100 0.0 10371176
14:00−20з6976100 0.1 10361638
17:00−20зюз4784100 0.1 1036854
20:00−21юз3492100 0.1 103653
28 февраля, вс
вс2823:00−21юз3593100 0.0 103788
02:00−21юз51093100 0.1 1037299
05:00−21зюз5992100 0.0 1037233
08:00−24зюз4591100 0.0 103872
11:00−20зюз598699 0.0 10391020
14:00−19з61075100 0.0 10381394
17:00−18з5880100 0.0 10381098
20:00−19юз3495100 0.1 103792
1 марта, пн
пн123:00−20юз3596100 0.1 103687
02:00−20юз2397100 0.3 103552
05:00−20ююз2398100 0.1 103350
08:00−21ююз2298100 0.3 103229
11:00−19ю2393100 0.1 1029224
14:00−18юв339196 0.1 1025259
17:00−16в2288100 0.0 1022123
20:00−17всв1288100 0.0 102020
2 марта, вт
вт223:00−17ссв1196100 0.1 101824
02:00−17с1297100 0.3 101629
05:00−17ссв3397100 0.3 1014101
08:00−19ссв5698100 0.6 1015175
11:00−20ссв5797100 0.1 1016257
14:00−19с469392 0.1 1017343
17:00−19с359577 0.0 1019182
20:00−22с569683 0.1 102299
3 марта, ср
ср323:00−28с449447 0.0 102535
02:00−31с349630 0.0 102624
05:00−32ссв34985 0.0 102723
08:00−33ссв349814 0.0 102833
11:00−31ссв349514 0.0 1027146
14:00−27ссв45937 0.0 1025215
17:00−25с579128 0.0 1024153
20:00−27св559447 0.0 102665